Flag for United Kingdom Weather past 2 weeks in Stornoway, Scotland, United Kingdom

Now
52 °F

Fog.


Feels Like: 52 °F
Forecast: 51 / 59 °F
Wind: No wind

Location: Stornoway

Current Time: Jul 6, 2015 at 6:50:55 AM

Latest Report: Jul 6, 2015 at 6:20 AM


Visibility: 0 mi

Pressure: 29.89 "Hg

Humidity: 88%

Dew point: 48 °F

Location of StornowayLocation

Historic Weather in Stornoway — Graph

°F

Stornoway temperature yesterday

Maximum temperature yesterday: 64 °F (at 2:20 PM)
Minimum temperature yesterday: 46 °F (at 4:50 AM)
Average temperature yesterday: 56 °F

Past Weeks' High & Low Weather Summary

 TemperatureHumidityPressure
High68 °F (Jul 3, 2:50 PM)100% (Jun 25, 6:50 AM)30.24 "Hg (Jun 25, 6:50 AM)
Low46 °F (Jun 24, 2:20 AM)56% (Jul 3, 2:50 PM)29.65 "Hg (Jun 28, 6:20 AM)
Average55 °F80%29.93 "Hg
* Reported Jun 21 5:20 AM — Jul 6 5:20 AM, Stornoway, Weather by CustomWeather, © 2015

Note: Actual official high and low records may vary slightly from our data, if they occured in-between our weather recording intervals... More about our weather records

Advertising

Stornoway weather history for previous 24 hours

 ConditionsComfort  
Time TempWeatherWind HumidityBarometerVisibility
5:20 AM
Mon, Jul 6
50 °FFog.No wind88%29.89 "Hg0 mi
4:20 AM52 °FPassing clouds.No wind88%29.89 "HgN/A
3:50 AM54 °FPassing clouds.No wind82%29.89 "HgN/A
3:20 AM54 °FPassing clouds.No wind82%29.89 "HgN/A
2:50 AM54 °FCool.No wind82%29.89 "HgN/A
2:20 AM54 °FPassing clouds.No wind82%29.89 "HgN/A
1:50 AM52 °FCool.No wind82%29.89 "HgN/A
1:20 AM54 °FCool.No wind82%29.89 "HgN/A
12:50 AM52 °FCool.2 mph82%29.89 "HgN/A
12:20 AM52 °FCool.No wind82%29.89 "HgN/A
11:50 PM
Sun, Jul 5
52 °FCool.No wind82%29.89 "HgN/A
11:20 PM54 °FCool.2 mph82%29.89 "HgN/A
10:50 PM54 °FCool.No wind82%29.89 "HgN/A
10:20 PM55 °FCool.No wind82%29.89 "HgN/A
9:50 PM55 °FCool.No wind82%29.89 "HgN/A
9:20 PM55 °FScattered showers. Passing clouds.2 mph82%29.89 "HgN/A
8:50 PM57 °FScattered showers. Passing clouds.3 mph82%29.89 "HgN/A
8:20 PM55 °FScattered showers. Passing clouds.2 mph82%29.92 "HgN/A
7:50 PM55 °FScattered showers. Passing clouds.5 mph82%29.92 "HgN/A
7:20 PM55 °FScattered showers. Passing clouds.7 mph82%29.92 "HgN/A
6:50 PM57 °FScattered showers. Passing clouds.8 mph77%29.92 "HgN/A
6:20 PM59 °FPassing clouds.7 mph77%29.89 "HgN/A
5:50 PM63 °FPassing clouds.9 mph73%29.92 "HgN/A
5:20 PM63 °FPassing clouds.5 mph73%29.92 "HgN/A
4:50 PM64 °FPassing clouds.3 mph68%29.92 "HgN/A
4:20 PM63 °FPassing clouds.6 mph77%29.92 "HgN/A
3:50 PM64 °FPassing clouds.5 mph64%29.92 "HgN/A
3:20 PM63 °FPassing clouds.6 mph73%29.95 "HgN/A
2:50 PM63 °FPassing clouds.7 mph68%29.95 "HgN/A
2:20 PM64 °FPassing clouds.6 mph64%29.95 "HgN/A
1:50 PM63 °FPassing clouds.6 mph68%29.95 "HgN/A
1:20 PM61 °FPassing clouds.3 mph77%29.95 "HgN/A
12:50 PM61 °FScattered showers. Passing clouds.2 mph77%29.95 "HgN/A
12:20 PM61 °FScattered showers. Passing clouds.3 mph77%29.95 "HgN/A
11:50 AM59 °FPassing clouds.2 mph77%29.98 "HgN/A
11:20 AM59 °FScattered clouds.3 mph77%29.98 "HgN/A
10:50 AM61 °FScattered clouds.3 mph72%29.98 "HgN/A
10:20 AM63 °FScattered clouds.5 mph73%29.98 "HgN/A
9:50 AM59 °FPassing clouds.5 mph77%29.98 "HgN/A
9:20 AM59 °FCool.3 mph82%29.98 "HgN/A
8:50 AM57 °FCool.2 mph88%29.95 "HgN/A
8:20 AM55 °FCool.5 mph82%29.98 "HgN/A
7:50 AM54 °FCool.No wind88%29.95 "HgN/A
7:20 AM54 °FCool.No wind88%29.98 "HgN/A
6:50 AM54 °FCool.No wind82%29.98 "HgN/A
6:20 AM50 °FCool.No wind88%29.98 "HgN/A
Weather by CustomWeather, © 2015

See weather overviewHow to use our weather pages